Location: Harwich
(41.6860°N, 70.0760°W)
Time: 14:45:08
(UTC-04:00)

Envisat - Visible Passes

Search period start: 29 May 2023 00:00
Search period end: 08 June 2023 00:00
Orbit: 763 x 765 km, 98.2° (Epoch: 29 May)

Date Brightness Start Highest point End Pass type
(mag) Time Alt. Az. Time Alt. Az. Time Alt. Az.
29 May 5.5 03:20:35 10° NE 03:23:40 16° E 03:26:44 10° SE visible
30 May 3.5 04:20:53 10° NNE 04:25:56 62° E 04:30:57 10° S visible
31 May 4.9 03:44:18 10° NE 03:48:37 27° E 03:52:55 10° SSE visible
01 Jun 5.7 03:09:10 10° ENE 03:11:06 12° E 03:13:01 10° ESE visible
02 Jun 4.0 04:08:34 10° NNE 04:13:29 47° E 04:18:20 10° S visible
03 Jun 5.2 03:32:16 10° NE 03:36:06 21° E 03:39:54 10° SE visible
05 Jun 4.4 03:56:19 10° NNE 04:00:59 36° E 04:05:38 10° SSE visible
06 Jun 5.5 03:20:24 10° NE 03:23:33 16° E 03:26:40 10° SE visible
07 Jun 3.5 04:20:45 10° NNE 04:25:48 63° E 04:30:49 10° S visible
